This is the latest recevied weather packets stored in our database for station/object OE3BCB-14. If no packets are shown the sender has not sent any weather packets the latest 10 day(s).
| Time | Temp. | Humidity | Pressure | Rain* | Wind** | Luminosity | Snow |
|---|---|---|---|---|---|---|---|
| 1777719027 | 30.56° C | 25% | 1025.5 hPa | - | - | 75 W/m² | - |
| 1777718724 | 30.56° C | 26% | 1025.7 hPa | - | - | 74 W/m² | - |
| 1777718422 | 30.56° C | 26% | 1025.8 hPa | - | - | 74 W/m² | - |
| 1777718120 | 30.56° C | 25% | 1025.8 hPa | - | - | 74 W/m² | - |
| 1777717817 | 30.56° C | 26% | 1025.8 hPa | - | - | 74 W/m² | - |
| 1777717515 | 30.56° C | 27% | 1025.9 hPa | - | - | 74 W/m² | - |
| 1777717212 | 30.56° C | 27% | 1026 hPa | - | - | 74 W/m² | - |
| 1777716910 | 30.56° C | 28% | 1026 hPa | - | - | 77 W/m² | - |
| 1777716608 | 30° C | 28% | 1026.1 hPa | - | - | 81 W/m² | - |
| 1777716305 | 30° C | 28% | 1026.1 hPa | - | - | 86 W/m² | - |
| 1777716003 | 29.44° C | 29% | 1026.1 hPa | - | - | 96 W/m² | - |
| 1777715700 | 29.44° C | 29% | 1026.1 hPa | - | - | 115 W/m² | - |
| 1777715398 | 28.89° C | 30% | 1026.2 hPa | - | - | 155 W/m² | - |
| 1777715095 | 29.44° C | 31% | 1026.3 hPa | - | - | 211 W/m² | - |
| 1777714793 | 29.44° C | 29% | 1026.4 hPa | - | - | 268 W/m² | - |
| 1777714491 | 30.56° C | 31% | 1026.5 hPa | - | - | 301 W/m² | - |
| 1777714188 | 30° C | 32% | 1026.6 hPa | - | - | 327 W/m² | - |
| 1777713886 | 30° C | 32% | 1026.6 hPa | - | - | 347 W/m² | - |
| 1777713584 | 31.67° C | 33% | 1026.7 hPa | - | - | 352 W/m² | - |
| 1777713281 | 28.89° C | 35% | 1026.7 hPa | - | - | 358 W/m² | - |
| 1777712979 | 27.78° C | 34% | 1026.7 hPa | - | - | 361 W/m² | - |
| 1777712676 | 28.89° C | 34% | 1026.8 hPa | - | - | 339 W/m² | - |
| 1777712374 | 28.89° C | 34% | 1026.8 hPa | - | - | 382 W/m² | - |
| 1777712071 | 30° C | 35% | 1026.9 hPa | - | - | 406 W/m² | - |
| 1777711466 | 27.78° C | 37% | 1026.9 hPa | - | - | 226 W/m² | - |
* Rain since midnight (hover to see other rain measurements)
** Current wind speed in m/s (hover to see current wind gust speed)